TimePST,TemperatureF,Dew PointF,Humidity,Sea Level PressureIn,VisibilityMPH,Wind Direction,Wind SpeedMPH,Gust SpeedMPH,PrecipitationIn,Events,Conditions,WindDirDegrees,DateUTC
12:53 AM,37.9,32.0,79,29.90,10.0,Calm,Calm,-,N/A,,Clear,0,2013-03-08 08:53:00
1:53 AM,39.9,30.9,70,29.89,10.0,NNW,3.5,-,N/A,,Clear,330,2013-03-08 09:53:00
2:53 AM,37.0,30.9,79,29.87,10.0,NNE,3.5,-,N/A,,Clear,30,2013-03-08 10:53:00
3:53 AM,39.9,30.9,70,29.86,10.0,NNW,4.6,-,N/A,,Clear,330,2013-03-08 11:53:00
4:53 AM,42.1,30.0,62,29.86,10.0,NW,6.9,-,N/A,,Clear,320,2013-03-08 12:53:00
5:53 AM,42.1,30.0,62,29.86,10.0,NW,5.8,-,N/A,,Clear,320,2013-03-08 13:53:00
6:53 AM,43.0,28.9,58,29.86,10.0,NNW,6.9,-,N/A,,Clear,330,2013-03-08 14:53:00
7:53 AM,46.9,30.0,52,29.86,10.0,NW,6.9,-,N/A,,Clear,320,2013-03-08 15:53:00
8:53 AM,52.0,28.9,41,29.87,10.0,North,10.4,19.6,N/A,,Clear,350,2013-03-08 16:53:00
9:53 AM,55.0,28.0,35,29.86,10.0,NNW,13.8,20.7,N/A,,Clear,340,2013-03-08 17:53:00
10:53 AM,59.0,30.0,33,29.85,10.0,North,9.2,-,N/A,,Clear,350,2013-03-08 18:53:00
11:53 AM,61.0,28.9,30,29.85,10.0,NNW,11.5,-,N/A,,Clear,330,2013-03-08 19:53:00
12:53 PM,63.0,28.0,27,29.83,10.0,NNW,11.5,-,N/A,,Clear,330,2013-03-08 20:53:00
1:53 PM,64.0,26.1,24,29.81,10.0,North,9.2,17.3,N/A,,Clear,360,2013-03-08 21:53:00
2:53 PM,64.9,26.1,23,29.81,10.0,NW,11.5,-,N/A,,Clear,310,2013-03-08 22:53:00
3:53 PM,64.9,24.1,21,29.80,10.0,North,11.5,18.4,N/A,,Clear,10,2013-03-08 23:53:00
4:53 PM,64.9,23.0,20,29.81,10.0,North,11.5,-,N/A,,Clear,360,2013-03-09 00:53:00
5:53 PM,62.1,25.0,24,29.84,10.0,WNW,5.8,-,N/A,,Clear,300,2013-03-09 01:53:00
6:53 PM,57.9,30.0,35,29.88,10.0,NW,6.9,-,N/A,,Clear,320,2013-03-09 02:53:00
7:53 PM,55.0,28.0,35,29.91,10.0,NW,5.8,-,N/A,,Clear,310,2013-03-09 03:53:00
8:53 PM,54.0,26.1,34,29.94,10.0,North,3.5,-,N/A,,Partly Cloudy,350,2013-03-09 04:53:00
9:53 PM,52.0,26.1,37,29.98,10.0,NNW,5.8,-,N/A,,Partly Cloudy,340,2013-03-09 05:53:00
10:53 PM,53.1,25.0,34,30.00,10.0,NNW,11.5,-,N/A,,Clear,340,2013-03-09 06:53:00
11:53 PM,53.1,24.1,32,30.03,10.0,NNW,8.1,-,N/A,,Mostly Cloudy,340,2013-03-09 07:53:00